Flag for Chile Weather past 2 weeks in Osorno, Chile

Now
59 °F

Low clouds.


Feels Like: 59 °F
Forecast: 45 / 77 °F
Wind: 2 mph from North

Location: Puerto Montt Airport

Current Time: Jan 31, 2015 at 7:49:14 AM

Latest Report: Jan 31, 2015 at 7:00 AM


Visibility: N/A

Pressure: 30.01 "Hg

Humidity: 94%

Dew point: 57 °F

Location of OsornoLocation

Historic Weather in Osorno — Graph

°F

Osorno temperature yesterday

Maximum temperature yesterday: 73 °F (at 3:00 PM)
Minimum temperature yesterday: 48 °F (at 5:00 AM)
Average temperature yesterday: 59 °F

Past Weeks' High & Low Weather Summary

 TemperatureHumidityPressure
High81 °F (Jan 21, 2:00 PM)100% (Jan 16, 10:00 AM)30.21 "Hg (Jan 16, 10:00 AM)
Low43 °F (Jan 28, 7:00 AM)31% (Jan 30, 3:00 PM)29.89 "Hg (Jan 21, 4:00 AM)
Average60 °F78%30.04 "Hg
* Reported Jan 16 7:00 AM — Jan 31 7:00 AM, Osorno, Weather by CustomWeather, © 2014

Note: Actual official high and low records may vary slightly from our data, if they occured in-between our weather recording intervals... More about our weather records

Advertising

Osorno weather history for previous 24 hours

 ConditionsComfort  
Time TempWeatherWind HumidityBarometerVisibility
7:00 AM
Jan 31
59 °FLow clouds.2 mph94%30.01 "HgN/A
6:00 AM59 °FLow clouds.No wind94%29.98 "HgN/A
5:00 AM59 °FOvercast.No wind94%29.98 "HgN/A
4:00 AM59 °FOvercast.3 mph94%29.98 "HgN/A
3:00 AM59 °FOvercast.3 mph88%29.98 "HgN/A
2:00 AM57 °FOvercast.No wind88%30.01 "HgN/A
1:00 AM55 °FPassing clouds.No wind94%30.01 "HgN/A
12:00 AM57 °FPassing clouds.No wind88%30.01 "HgN/A
11:00 PM
Jan 30
59 °FClear.3 mph82%30.01 "Hg10 mi
10:00 PM61 °FClear.5 mph83%30.01 "Hg10 mi
9:00 PM64 °FSunny.6 mph73%30.01 "Hg10 mi
8:00 PM68 °FSunny.10 mph60%29.98 "Hg10 mi
7:00 PM72 °FSunny.9 mph50%29.95 "Hg10 mi
6:00 PM72 °FSunny.9 mph53%29.95 "Hg10 mi
5:00 PM72 °FSunny.12 mph57%29.98 "Hg10 mi
4:00 PM73 °FSunny.6 mph47%29.98 "Hg10 mi
3:00 PM73 °FSunny.5 mph31%29.98 "Hg10 mi
2:00 PM72 °FSunny.3 mph44%30.01 "Hg10 mi
1:00 PM64 °FSunny.3 mph64%30.01 "Hg10 mi
12:00 PM61 °FPartly sunny.2 mph77%30.04 "HgN/A
11:00 AM55 °FLow clouds.No wind88%30.04 "HgN/A
10:00 AM54 °FLow clouds.2 mph94%30.04 "HgN/A
9:00 AM50 °FLow clouds.2 mph94%30.04 "HgN/A
8:00 AM48 °FOvercast.1 mph94%30.04 "HgN/A
7:00 AM48 °FCool.3 mph94%30.01 "Hg3 mi
Weather by CustomWeather, © 2014

See weather overviewHow to use our weather pages